Showing default

ICEYE-X44, 62707

Orbit data source: Space-Track

ICEYE-X44, 62707 is an Emirian payload satellite in SSO that was launched on Tue, 14 Jan 2025 UTC via an FALCON 9 launch vehicle from the Air Force Western Test Range (AFWTR). Payload-class satellites include a variety of spacecraft equipped with specific instruments for various scientific and technological missions. These include communications satellites like Starlink; space stations such as the ISS; scientific satellites like the Hubble; Earth observation satellites from companies like Planet Labs, Umbra, and HawkEye 360; GPS; miniature CubeSats for education and research; and military/defense satellites.

Loading next visibility...
Identifier
62707, 2025-009DC
Orbit
SSO
Country
Flag of AEAE / UAE
Related business
None
Manufacturer
ICEYE
Mission
Operational Commercial Radar Imaging
Bus & Motor
ICEYE, Unknown motor
Mass
80 kg wet, 80 kg dry
Launch date (UTC)
2025-01-14 (1 year ago)
Launch vehicle
FALCON 9
Launch site
Air Force Western Test Range (AFWTR)
Object type
Payload
Rocket body
Debris
Shape & HBR
Box + 1 Pan, 2.4 m
Radar Cross Section
0.776 m², Large (>1 m²)

Expand to show TLE details & history
Last TLE update: 11 hours ago

TLE from 11 hours ago
0 ICEYE-X44
1 62707U 25009DC  26126.47882735  .00002878  00000-0  26322-3 0  9992
2 62707  97.7048 206.2722 0000405 191.5421 168.5791 14.95772246 93705
Epoch: 2026-05-06T11:29Z
TLE epoch observation values (Epoch: 2026-05-06T11:29:30.683Z)
Latitude
0.00002°
Longitude
169.55562°
Altitude
583.302 km
Speed
7.569 km/s
True Right ascension
13h 45m 05s
True Declination
0° 00' 00"
Sunlit
Object was in full shadow at epoch
Visualization orbit readout
Latitude
Unknown
Longitude
Unknown
Altitude
Unknown
Speed
Unknown
Apparent Right ascension
Unknown
Apparent Declination
Unknown
Sunlit
N/A
Visualization observer readout
Local Sidereal Time
06:03:46
Azimuth
Unknown
Elevation
Unknown
Doppler factor
Unknown
Orbital elements
Apogee altitude
577.27 km
Perigee altitude
576.706 km
Semi-major axis
6,955.125 km
Eccentricity
0.00004
Inclination
97.7048°
RAAN
206.2722°
Arg. of periapsis
191.5421°
True anomaly
168.58002°
Mean anomaly
168.5791°
Eccentric anomaly
168.57956°
Mean motion
3.74184 °/min
Orbital period
96.21 mins
BSTAR
0.00026322
Loading maneuver chart data...
Computing Atmospheric mass density...
Loading historical data...
Loading historical data...
Loading historical data...
Loading historical data...
Loading historical data...
Loading historical data...
Loading historical data...

Documentation

Showing up to 5 results
|